Regional Weather Roundup
Issued by NWS

Home | Current Version | Previous Version | Text Only | Print | Product List | Glossary On
Versions: 1 2 3 4 5 6 7 8 9 10 11 12 13 14 15 16 17 18 19 20 21 22 23 24 25 26 27 28 29 30 31 32 33 34 35 36 37 38 39 40 41 42 43 44 45 46 47 48 49 50
000
ASUS43 KMKX 301300
RWRWI

WISCONSIN REGIONAL WEATHER ROUNDUP
NATIONAL WEATHER SERVICE MILWAUKEE/SULLIVAN WI
800 AM CDT SAT APR 30 2016

NOTE: "FAIR" INDICATES FEW OR NO CLOUDS BELOW 12,000 FEET WITH NO
SIGNIFICANT WEATHER AND/OR OBSTRUCTIONS TO VISIBILITY.

WIZ001-002-006>008-014>016-023>028-301400-
NORTHWEST WISCONSIN

CITY           SKY/WX    TMP DP  RH WIND       PRES   REMARKS
SUPERIOR ARPT  SUNNY     40  34  80 NE14G21   30.26R WCI  32
ASHLAND        MOSUNNY   41  36  82 NE12      30.25S
HAYWARD        CLOUDY    42  30  62 NE13      30.18F
SIREN          CLOUDY    39  31  72 NE5       30.17F
CUMBERLAND     CLOUDY    37  32  81 NE10      30.14F WCI  30
RICE LAKE      CLOUDY    40  32  73 N3        30.16S
CHETEK         CLOUDY    41  32  70 E7        30.15S
LADYSMITH      CLOUDY    42  32  69 E10       30.17F
EAU CLAIRE     NOT AVBL
MENOMONIE      CLOUDY    43  34  71 N8        30.11F
NEW RICHMOND   CLOUDY    41  32  70 NE9       30.11F
OSCEOLA        PTSUNNY   42  33  72 NE7       30.15F
$$

WIZ003>005-009-010-017-018-301400-
NORTH CENTRAL WISCONSIN

CITY           SKY/WX    TMP DP  RH WIND       PRES   REMARKS
MANITOWISH WTR MOSUNNY   39  31  73 NE7       30.20S WCI  34
ARBOR VITAE    CLOUDY    39  31  71 NE8       30.19S WCI  34
WOODRUFF       CLOUDY    39  31  71 NE8       30.19S WCI  34
RHINELANDER    CLOUDY    41  29  62 E7        30.19R
EAGLE RIVER    CLOUDY    39  29  68 NE7       30.20R WCI  34
LAND O LAKES   MOSUNNY   38  31  73 CALM      30.22R
PHILLIPS       CLOUDY    39  31  73 NE7       30.17S WCI  34
TOMAHAWK       CLOUDY    39  31  72 E6        30.18S WCI  35
MEDFORD        CLOUDY    38  32  79 NE8       30.14S WCI  32
MERRILL        CLOUDY    36  32  84 NE5       30.17S WCI  32
$$

WIZ029-030-035-036-043>047-301400-
CENTRAL WISCONSIN

CITY           SKY/WX    TMP DP  RH WIND       PRES   REMARKS
WAUSAU         CLOUDY    44  31  60 E10       30.12F
MOSINEE        SUNNY     41  32  70 NE10      30.14F
MARSHFIELD     CLOUDY    42  32  67 NE10      30.10F
STEVENS POINT  CLOUDY    38  31  73 E7        30.14R WCI  33
WAUPACA        CLOUDY    43  34  71 NE7       30.14S
WAUTOMA        CLOUDY    41  34  76 NE9       30.12S
WISC RAPIDS    CLOUDY    42  29  59 E12       30.12F
CAMP DOUGLAS   NOT AVBL
$$

WIZ011>013-019>022-031-037>040-048>050-301400-
NORTHEAST WISCONSIN

CITY           SKY/WX    TMP DP  RH WIND       PRES   REMARKS
ANTIGO         CLOUDY    39  33  77 NE6       30.17S WCI  35
SHAWANO        PTSUNNY   44  34  68 NE9       30.17S
OCONTO         MOSUNNY   42  36  79 N5        30.17R
STURGEON BAY   CLOUDY    45  34  65 E8        30.21R
GREEN BAY      PTSUNNY   45  38  76 NE15      30.15S
MANITOWOC      NOT AVBL
APPLETON       PTSUNNY   41  36  81 NE9       30.12R
CLINTONVILLE   CLOUDY    41  32  70 NE9       30.16R
OSHKOSH        PTSUNNY   44  34  67 NE9       30.12S
$$

WIZ032>034-041-042-053>061-301400-
SOUTHWEST WISCONSIN

CITY           SKY/WX    TMP DP  RH WIND       PRES   REMARKS
LA CROSSE      CLOUDY    45  34  65 E7        30.07S
SPARTA         CLOUDY    41  35  77 E8        30.08F
VIROQUA        CLOUDY    44  38  82 E12       30.05S
BOSCOBEL       CLOUDY    48  38  68 E6        30.04F
PRAIRIE DU CHI CLOUDY    46  37  73 E10G18    30.01F
PLATTEVILLE    CLOUDY    45  41  86 E17G23    30.00F
$$

WIZ056-057-062-063-064-067-068-301400-
SOUTH CENTRAL WISCONSIN

CITY           SKY/WX    TMP DP  RH WIND       PRES   REMARKS
REEDSBURG      CLOUDY    41  32  70 E5        30.07F
BARABOO/DELLS  CLOUDY    40  32  72 E6        30.08S
LONE ROCK      NOT AVBL
MINERAL POINT  CLOUDY    45  37  76 E16G22    30.03F
MADISON        CLOUDY    44  33  65 E9        30.07S
MIDDLETON      PTSUNNY   45  36  69 E10       30.07F
WATERTOWN      CLOUDY    42  33  70 E7        30.09S
MONROE         PTSUNNY   43  37  81 E13       30.02F
JANESVILLE     CLOUDY    46  39  76 E15       30.05F
$$

WIZ051-052-058>065-066-070>072-301400-
SOUTHEAST WISCONSIN

CITY           SKY/WX    TMP DP  RH WIND       PRES   REMARKS
MILWAUKEE      CLOUDY    44  39  82 E12       30.10S
WAUKESHA       SUNNY     41  36  81 E5        30.11R
MILWAUKEE/TIMM NOT AVBL
RACINE         CLOUDY    44  38  79 E12       30.11S
BURLINGTON     PTSUNNY   43  38  85 E7        30.07F
KENOSHA        CLOUDY    44  40  85 E13       30.09S
FOND DU LAC    PTSUNNY   43  33  68 E9        30.11F
SHEBOYGAN      CLOUDY    43  38  82 NE8       30.13S
WEST BEND      PTSUNNY   41  34  75 E6        30.11S
JUNEAU         CLOUDY    41  31  68 NE9       30.11S
$$

LSZ147-162-301400-
LAKE SUPERIOR

STATION/POSITION TIME  TEMP    WIND        PRES    WAVE
                       AIR SEA DIR/SP/G            HT/PER
                 (UTC) (F)     (DEG/KT/KT) (MB)    (FT/S)
W MID LAKE BUOY  1150   39 36   40/ 10/ 12 1026.0R   1/ 3
DEVILS ISLAND    1200   39      60/ 16/ 17 1025.6R
SAXON HARBOR     1200   33     200/  2/  3 1023.7R
$$

LMZ867-665-643>646-301400-
LAKE MICHIGAN

STATION/POSITION TIME  TEMP    WIND        PRES    WAVE
                       AIR SEA DIR/SP/G            HT/PER
                 (UTC) (F)     (DEG/KT/KT) (MB)    (FT/S)
CHAMBERS ISLAND  1200   41      20/ 10/ 13 1022.0S
N MID LAKE BUOY  1150   40 38   20/ 12/ 14 1022.2R   1/ 3
NORTHPORT PIER   1202   41     340/  5/  7 1022.0R
ALGOMA LAKESHORE 1115           60/ 13/ 16   N/A
KEWAUNEE LAKESHO 1200   41      40/  8/ 11 1020.4R
SHEBOYGAN LAKESH 1200   41      10/  6/  7 1021.3R
PORT WASHINGTON  1200   43      40/  9/ 11 1021.0R
S MID LAKE BUOY  1150   42 40   80/ 12/ 14 1019.5R   1/ 3
KENOSHA   LAKESH 1200   42      80/ 14/ 16 1019.0R
$$

TC  - TEMPERATURE IN CELSIUS
VSB - VISIBILITY IN STATUTE MILES
WCI - WIND CHILL INDEX
HX  - HEAT INDEX





USA.gov is the U.S. government's official web portal to all federal, state and local government web resources and services.